Home > Weather > Cascais > Past weeks

Flag for Portugal Past Weather in Cascais, Portugal — Yesterday and Last 2 Weeks

Now
73 °F

Passing clouds.


Feels Like: 76 °F
Forecast: 65 / 75 °F
Wind: 14 mph from Northwest

Location: Lisbon Portela Airport

Current Time: Jul 26, 2016 at 9:32:47 AM

Latest Report: Jul 26, 2016 at 9:00 AM


Visibility: N/A

Pressure: 30.04 "Hg

Humidity: 69%

Dew Point: 63 °F

Location of CascaisLocation

Past Weather in Cascais — Graph

°F

Cascais Temperature Yesterday

Maximum temperature yesterday: 97 °F (at 2:00 PM)
Minimum temperature yesterday: 72 °F (at 6:30 AM)
Average temperature yesterday: 85 °F

High & Low Weather Summary for the Past Weeks

 TemperatureHumidityPressure
High97 °F (Jul 15, 3:00 PM)88% (Jul 19, 4:00 AM)30.12 "Hg (Jul 19, 4:00 AM)
Low59 °F (Jul 13, 6:00 AM)15% (Jul 15, 2:30 PM)29.89 "Hg (Jul 17, 7:30 PM)
Average76 °F50%30.02 "Hg
* Reported Jul 11 8:00 AM — Jul 26 8:30 AM, Cascais, Weather by CustomWeather, © 2016

Note: Actual official high and low records may vary slightly from our data, if they occured in-between our weather recording intervals... More about our weather records

Advertising

Cascais Weather History for the Previous 24 Hours

Scroll right to see more
 ConditionsComfort  
Time TempWeatherWind HumidityBarometerVisibility
8:30 AM
Tue, Jul 26
72 °FPassing clouds.14 mph73%30.04 "HgN/A
8:00 AM70 °FPassing clouds.13 mph78%30.01 "HgN/A
7:30 AM70 °FPassing clouds.13 mph78%30.01 "HgN/A
7:00 AM70 °FPassing clouds.12 mph73%30.01 "HgN/A
6:30 AM70 °FPassing clouds.14 mph73%30.01 "HgN/A
6:00 AM72 °FPassing clouds.8 mph69%30.01 "HgN/A
5:30 AM73 °FClear.9 mph61%30.01 "Hg10 mi
5:00 AM73 °FClear.12 mph61%30.01 "Hg10 mi
4:30 AM75 °FPassing clouds.7 mph50%30.01 "HgN/A
4:00 AM77 °FClear.9 mph44%30.01 "Hg10 mi
3:30 AM77 °FClear.7 mph39%30.01 "Hg10 mi
3:00 AM79 °FPassing clouds.7 mph34%30.01 "HgN/A
2:30 AM79 °FClear.8 mph37%30.01 "Hg10 mi
2:00 AM79 °FClear.7 mph39%30.01 "Hg10 mi
1:30 AM79 °FClear.7 mph39%30.01 "Hg10 mi
1:00 AM79 °FClear.6 mph39%30.01 "Hg10 mi
12:30 AM79 °FClear.7 mph39%30.01 "Hg10 mi
12:00 AM81 °FClear.6 mph37%30.01 "Hg10 mi
11:30 PM
Mon, Jul 25
81 °FPassing clouds.3 mph34%30.01 "HgN/A
11:00 PM81 °FClear.2 mph34%30.01 "Hg10 mi
10:30 PM82 °FClear.3 mph32%30.01 "Hg10 mi
10:00 PM82 °FPassing clouds.9 mph30%30.01 "HgN/A
9:30 PM84 °FPassing clouds.13 mph31%29.98 "HgN/A
9:00 PM84 °FSunny.14 mph35%29.98 "Hg10 mi
8:30 PM88 °FPassing clouds.13 mph31%29.98 "HgN/A
8:00 PM90 °FPassing clouds.13 mph31%29.98 "HgN/A
7:30 PM93 °FSunny.12 mph28%29.98 "Hg10 mi
7:00 PM95 °FPassing clouds.12 mph23%29.98 "HgN/A
6:30 PM95 °FSunny.9 mph22%29.98 "Hg10 mi
6:00 PM97 °FSunny.9 mph25%29.98 "Hg10 mi
5:30 PM97 °FPassing clouds.9 mph27%29.98 "HgN/A
5:00 PM93 °FSunny.13 mph30%29.98 "Hg10 mi
4:30 PM91 °FSunny.13 mph30%30.01 "Hg10 mi
4:00 PM91 °FSunny.14 mph30%30.01 "Hg10 mi
3:30 PM91 °FSunny.13 mph30%30.01 "Hg10 mi
3:00 PM93 °FPassing clouds.10 mph28%30.01 "HgN/A
2:30 PM97 °FSunny.6 mph25%30.01 "Hg10 mi
2:00 PM97 °FSunny.2 mph23%30.01 "Hg10 mi
1:30 PM95 °FSunny.3 mph26%30.01 "Hg10 mi
1:00 PM91 °FPassing clouds.5 mph30%30.01 "HgN/A
12:30 PM91 °FPassing clouds.5 mph32%30.01 "HgN/A
12:00 PM88 °FSunny.5 mph33%30.01 "Hg10 mi
11:30 AM86 °FPassing clouds.6 mph35%30.01 "HgN/A
11:00 AM84 °FPassing clouds.6 mph37%30.01 "HgN/A
10:30 AM82 °FPassing clouds.7 mph42%30.01 "HgN/A
10:00 AM81 °FPassing clouds.8 mph45%30.01 "HgN/A
9:30 AM79 °FPassing clouds.6 mph51%30.01 "HgN/A
9:00 AM77 °FSunny.6 mph57%30.01 "Hg10 mi
Weather by CustomWeather, © 2016

See weather overviewHow to use our weather pages